{"data":{"norad_id":65078,"intl_designator":"2025-167A","name":"STARLINK-34771","alt_names":[],"object_type":"PAYLOAD","status":"ACTIVE","operator":null,"country":"US","launch_date":"2025-08-04","launch_site_code":"AFETR","launch_vehicle":null,"mission":null,"orbit_class":"UNKNOWN","rcs_meters":null,"size_class":null,"mass_kg":null,"dimensions":null,"purposes":["comms"],"wikipedia_slug":null,"has_3d_model":false,"image_url":null,"decayed_at":null,"tle_current":{"epoch":"2026-09-20T08:43:40.998144Z","epoch_age_seconds":132696,"freshness":"FRESH","line1":"1 65078U 25167A   26263.36366896  .00022846  00000+0  68482-3 0  9995","line2":"2 65078  53.1584 198.3290 0000880  59.7556 300.3533 15.34418485 63345","mean_motion":15.34418485,"eccentricity":8.8e-5,"inclination_deg":53.1584,"raan_deg":198.329,"arg_perigee_deg":59.7556,"mean_anomaly_deg":300.3533,"bstar":0.00068482,"rev_number":6334,"period_min":93.846627505925,"perigee_km":462.04631033678,"apogee_km":463.25028854948,"semimajor_km":6840.7852994431,"source":"CELESTRAK","updated_at":"2026-09-21T09:00:35.520539Z"}}}